星链-32936 (STARLINK-32936)

导读

STARLINK-32936是美国SpaceX星链星座的卫星,于2025年3月3日发射入轨。星链项目旨在打造全球卫星互联网星座,为地面用户提供低成本、高覆盖的宽带网络服务。该卫星延续了星链标准设计,参与低轨星座组网,进一步扩展了星链系统的全球服务覆盖范围。

Basic Information
目录编号:
63147
目录名称:
STARLINK-32936
国际标识:
2025-043R
轨道中心:
EARTH
卫星名称:
星链-32936
卫星全名:
星链-32936 (STARLINK-32936)
卫星状态:
在轨 (已飞行468 天)
发射日期:
2025-03-03 UTC
国别 :
美国 (US)
星等 :
--
Orbit Information
数据来源 国际轨道数据 AOE轨道数据
星历时间 2026-06-14T03:27:12+0800
14小时前
查看轨道信息
2026-06-11T12:00:00+0800
3天前
查看轨道信息
半长轴 6861.149km 6861.221km
偏心率 0.0004459 0.0001851
轨道倾角 43.005° 43.003°
近地点辐角 265.352° 252.103°
升交点赤经 200.247° 215.187°
平近点角 94.683° 311.323°
近地点 479.952km 481.813km
远地点 486.072km 484.355km
周期 94.266分钟 94.267分钟
每日圈数 15.275925 15.275686
Detailed Information
固有亮度:
5
最大亮度:
2.5
卫星平台:
Starlink V1.0
覆盖范围:
全球
运营商:
太空探索技术公司
运营商所在国:
美国
制造商(研发单位):
太空探索技术公司
制造商所在国:
美国
使用方式:
暂无
Satellite Introduction
Starlink 计划是 SpaceX 推出的全球卫星互联网项目,通过发射低轨道卫星,为全球尤其是偏远地区提供高速、低延迟的互联网服务。自 2019 年起,Starlink 已部署数千颗卫星,旨在缩小全球数字鸿沟,推动互联网普及。该项目还为军事、航空等行业提供通信支持,带来广泛经济效益。
2D Orbit Map
3D Orbit Map
Orbit Altitude Analysis Chart
Orbit Inclination Analysis Chart
Orbit Comprehensive Analysis Chart
View Comprehensive Chart